When you browse on this site, cookies collect data to enhance your experience and personalize the content and advertising you see.
Visit our Privacy Policy to learn more. By continuing to use the site, you agree to this use of cookies and data.
  • Em Portugal
  • Lista de países
  • Para 7 dias
  • Temperatura da água
  • Mapa do tempo
  • Widgets de tempo
  • user-avatar
    Iniciar Sessão

    Previsão horária em Innsbruck

    Hoje, 2 Junho, Terça-feira

    Tempo Temperatura Precipitação Vento Pressão Humidade
    00:00 +2°C° 0 mm 1 m/s 596 mmHg 95%
    01:00 +2°C° 0 mm 1 m/s 595 mmHg 95%
    02:00 +2°C° 0 mm 1 m/s 595 mmHg 94%
    03:00 +2°C° 0 mm 1 m/s 595 mmHg 92%
    04:00 +2°C° 0 mm 1 m/s 595 mmHg 91%
    05:00 +4°C° 0 mm 1 m/s 596 mmHg 84%
    06:00 +6°C° 0 mm 1 m/s 597 mmHg 77%
    07:00 +8°C° 0 mm 1 m/s 598 mmHg 71%
    08:00 +10°C° 0 mm 1 m/s 598 mmHg 62%
    09:00 +10°C° 0 mm 2 m/s 599 mmHg 54%
    10:00 +13°C° 0 mm 2 m/s 600 mmHg 46%
    11:00 +14°C° 0 mm 2 m/s 599 mmHg 44%
    12:00 +13°C° 0 mm 3 m/s 599 mmHg 42%
    13:00 +14°C° 0 mm 3 m/s 599 mmHg 40%
    14:00 +13°C° 0.3 mm 3 m/s 599 mmHg 42%
    15:00 +13°C° 0.3 mm 3 m/s 598 mmHg 45%
    16:00 +13°C° 0.3 mm 3 m/s 598 mmHg 48%
    17:00 +12°C° 0.2 mm 2 m/s 597 mmHg 56%
    18:00 +10°C° 0.2 mm 2 m/s 596 mmHg 63%
    19:00 +8°C° 0.2 mm 2 m/s 596 mmHg 71%
    20:00 +7°C° 0 mm 1 m/s 595 mmHg 77%
    21:00 +5°C° 0 mm 1 m/s 594 mmHg 83%
    22:00 +3°C° 0 mm 1 m/s 593 mmHg 89%
    23:00 +3°C° 0 mm 1 m/s 593 mmHg 89%

    Amanhã, 3 Junho, Quarta-feira

    Tempo Temperatura Precipitação Vento Pressão Humidade
    00:00 +3°C° 0 mm 1 m/s 593 mmHg 88%
    01:00 +2°C° 0 mm 1 m/s 592 mmHg 87%
    02:00 +2°C° 0 mm 1 m/s 592 mmHg 85%
    03:00 +2°C° 0 mm 1 m/s 591 mmHg 83%
    04:00 +2°C° 0 mm 1 m/s 591 mmHg 81%
    05:00 +4°C° 0 mm 1 m/s 592 mmHg 74%
    06:00 +6°C° 0 mm 1 m/s 593 mmHg 66%
    07:00 +8°C° 0 mm 0 m/s 594 mmHg 58%
    08:00 +11°C° 0 mm 1 m/s 594 mmHg 50%
    09:00 +13°C° 0 mm 1 m/s 595 mmHg 43%
    10:00 +15°C° 0 mm 1 m/s 596 mmHg 35%
    11:00 +15°C° 0 mm 1 m/s 595 mmHg 35%
    12:00 +16°C° 0 mm 1 m/s 595 mmHg 34%
    13:00 +16°C° 0 mm 1 m/s 595 mmHg 33%
    14:00 +16°C° 0.2 mm 1 m/s 594 mmHg 37%
    15:00 +15°C° 0.2 mm 1 m/s 593 mmHg 42%
    16:00 +14°C° 0.2 mm 1 m/s 593 mmHg 47%
    17:00 +13°C° 0.3 mm 1 m/s 592 mmHg 57%
    18:00 +11°C° 0.3 mm 1 m/s 591 mmHg 66%
    19:00 +10°C° 0.3 mm 1 m/s 590 mmHg 76%
    20:00 +9°C° 0.3 mm 1 m/s 590 mmHg 80%
    21:00 +8°C° 0.3 mm 1 m/s 590 mmHg 84%
    22:00 +6°C° 0.3 mm 2 m/s 589 mmHg 88%
    23:00 +5°C° 0.1 mm 2 m/s 589 mmHg 89%

    Depois de amanhã, 4 Junho, Quinta-feira

    Tempo Temperatura Precipitação Vento Pressão Humidade
    00:00 +5°C° 0.1 mm 2 m/s 589 mmHg 90%
    01:00 +5°C° 0.1 mm 2 m/s 588 mmHg 91%
    02:00 +5°C° 0.1 mm 2 m/s 588 mmHg 92%
    03:00 +5°C° 0.1 mm 1 m/s 587 mmHg 93%
    04:00 +5°C° 0.1 mm 1 m/s 587 mmHg 93%
    05:00 +6°C° 0.5 mm 1 m/s 587 mmHg 94%
    06:00 +6°C° 0.5 mm 1 m/s 587 mmHg 94%
    07:00 +6°C° 0.5 mm 1 m/s 587 mmHg 95%
    08:00 +6°C° 0.9 mm 1 m/s 587 mmHg 94%
    09:00 +7°C° 0.9 mm 1 m/s 587 mmHg 94%
    10:00 +7°C° 0.9 mm 1 m/s 587 mmHg 93%
    11:00 +7°C° 0.4 mm 1 m/s 586 mmHg 91%
    12:00 +8°C° 0.4 mm 1 m/s 586 mmHg 89%
    13:00 +7°C° 0.4 mm 2 m/s 586 mmHg 87%
    14:00 +7°C° 0.4 mm 2 m/s 586 mmHg 87%
    15:00 +7°C° 0.4 mm 2 m/s 586 mmHg 87%
    16:00 +7°C° 0.4 mm 2 m/s 586 mmHg 86%
    17:00 +6°C° 1.7 mm 2 m/s 585 mmHg 90%
    18:00 +5°C° 1.7 mm 2 m/s 585 mmHg 93%
    19:00 +4°C° 1.7 mm 2 m/s 585 mmHg 97%
    20:00 +5°C° 2.1 mm 1 m/s 584 mmHg 97%
    21:00 +4°C° 2.1 mm 1 m/s 584 mmHg 98%
    22:00 +3°C° 2.1 mm 1 m/s 584 mmHg 98%
    23:00 +3°C° 2.6 mm 1 m/s 583 mmHg 98%

    5 Junho, Sexta-feira

    Tempo Temperatura Precipitação Vento Pressão Humidade
    00:00 +2°C° 2.6 mm 1 m/s 583 mmHg 98%
    01:00 +2°C° 2.6 mm 1 m/s 582 mmHg 98%
    02:00 +1°C° 2.5 mm 2 m/s 582 mmHg 98%
    03:00 +1°C° 2.5 mm 2 m/s 582 mmHg 98%
    04:00 +1°C° 2.5 mm 2 m/s 582 mmHg 98%
    05:00 +1°C° 2 mm 2 m/s 582 mmHg 98%
    06:00 +1°C° 2 mm 2 m/s 582 mmHg 98%
    07:00 -1°C° 2 mm 2 m/s 583 mmHg 98%
    08:00 -1°C° 1.4 mm 2 m/s 583 mmHg 98%
    09:00 -1°C° 1.4 mm 2 m/s 583 mmHg 98%
    10:00 -1°C° 1.4 mm 3 m/s 583 mmHg 98%
    11:00 -1°C° 0.8 mm 3 m/s 584 mmHg 98%
    12:00 -2°C° 0.8 mm 3 m/s 584 mmHg 98%
    13:00 -2°C° 0.8 mm 3 m/s 584 mmHg 98%
    14:00 -1°C° 0.7 mm 2 m/s 584 mmHg 96%
    15:00 -1°C° 0.7 mm 2 m/s 585 mmHg 94%
    16:00 -1°C° 0.7 mm 2 m/s 585 mmHg 93%
    17:00 -1°C° 0.2 mm 2 m/s 585 mmHg 93%
    18:00 -1°C° 0.2 mm 2 m/s 586 mmHg 93%
    19:00 -1°C° 0.2 mm 2 m/s 586 mmHg 93%
    20:00 -2°C° 0 mm 2 m/s 586 mmHg 93%
    21:00 -3°C° 0 mm 2 m/s 586 mmHg 93%
    22:00 -4°C° 0 mm 2 m/s 586 mmHg 94%
    23:00 -4°C° 0.1 mm 2 m/s 587 mmHg 94%

    6 Junho, Sábado

    Tempo Temperatura Precipitação Vento Pressão Humidade
    00:00 -4°C° 0.1 mm 2 m/s 587 mmHg 94%
    01:00 -4°C° 0.1 mm 2 m/s 587 mmHg 94%
    02:00 -5°C° 0 mm 2 m/s 587 mmHg 94%
    03:00 -5°C° 0 mm 2 m/s 588 mmHg 93%
    04:00 -5°C° 0 mm 2 m/s 588 mmHg 93%
    05:00 -1°C° 0 mm 1 m/s 589 mmHg 90%
    06:00 0°C° 0 mm 1 m/s 590 mmHg 88%
    07:00 +2°C° 0 mm 1 m/s 590 mmHg 85%
    08:00 +4°C° 0 mm 1 m/s 591 mmHg 79%
    09:00 +6°C° 0 mm 1 m/s 592 mmHg 72%
    10:00 +8°C° 0 mm 1 m/s 593 mmHg 66%
    11:00 +8°C° 0 mm 1 m/s 593 mmHg 65%
    12:00 +9°C° 0 mm 1 m/s 593 mmHg 65%
    13:00 +10°C° 0 mm 1 m/s 593 mmHg 64%
    14:00 +10°C° 0 mm 1 m/s 593 mmHg 64%
    15:00 +10°C° 0 mm 1 m/s 593 mmHg 64%
    16:00 +9°C° 0 mm 2 m/s 593 mmHg 64%
    17:00 +8°C° 0 mm 2 m/s 593 mmHg 70%
    18:00 +7°C° 0 mm 2 m/s 593 mmHg 76%
    19:00 +6°C° 0 mm 2 m/s 592 mmHg 81%
    20:00 +5°C° 0 mm 2 m/s 592 mmHg 84%
    21:00 +4°C° 0 mm 2 m/s 592 mmHg 87%
    22:00 +3°C° 0 mm 2 m/s 591 mmHg 89%
    23:00 +2°C° 0 mm 2 m/s 591 mmHg 90%

    7 Junho, Domingo

    Tempo Temperatura Precipitação Vento Pressão Humidade
    00:00 +2°C° 0 mm 2 m/s 591 mmHg 91%
    01:00 +2°C° 0 mm 2 m/s 591 mmHg 92%
    02:00 +2°C° 0 mm 2 m/s 591 mmHg 92%
    03:00 +2°C° 0 mm 2 m/s 590 mmHg 92%
    04:00 +2°C° 0 mm 2 m/s 590 mmHg 92%
    05:00 +3°C° 0 mm 2 m/s 591 mmHg 88%
    06:00 +4°C° 0 mm 2 m/s 591 mmHg 85%
    07:00 +5°C° 0 mm 2 m/s 592 mmHg 82%
    08:00 +6°C° 0 mm 2 m/s 592 mmHg 78%
    09:00 +7°C° 0 mm 2 m/s 593 mmHg 75%
    10:00 +9°C° 0 mm 2 m/s 594 mmHg 71%
    11:00 +9°C° 0.2 mm 2 m/s 594 mmHg 73%
    12:00 +9°C° 0.2 mm 2 m/s 594 mmHg 75%
    13:00 +9°C° 0.2 mm 2 m/s 594 mmHg 77%
    14:00 +9°C° 0.7 mm 2 m/s 594 mmHg 80%
    15:00 +8°C° 0.7 mm 2 m/s 594 mmHg 83%
    16:00 +8°C° 0.7 mm 2 m/s 594 mmHg 86%
    17:00 +8°C° 0.8 mm 1 m/s 594 mmHg 90%
    18:00 +7°C° 0.8 mm 1 m/s 593 mmHg 93%
    19:00 +6°C° 0.8 mm 1 m/s 593 mmHg 97%
    20:00 +6°C° 0.5 mm 1 m/s 593 mmHg 97%
    21:00 +5°C° 0.5 mm 1 m/s 593 mmHg 98%
    22:00 +4°C° 0.5 mm 0 m/s 594 mmHg 98%
    23:00 +4°C° 0.8 mm 0 m/s 594 mmHg 99%
    Mostrar mais